Location: ????????
(55.0559°N, 39.1270°E)
Time: 00:18:40
(UTC+00:00)

Gbstr 26 Del rocket - Pass Details

Date: 15 November 2025
Orbit: 489 x 1219 km, 51.8° (Epoch: 12 December)

Event Time Altitude Azimuth Distance (km) Brightness Sun altitude
Exits shadow 02:39:43 34° 250° (WSW) 1,203 4.0 -19.1°
Maximum altitude 02:41:51 63° 183° (S) 885 3.8 -18.8°
Drops below altitude 10° 02:47:53 10° 104° (ESE) 2,627 7.5 -17.9°
Sets 02:50:46 0° 102° (ESE) 3,693 8.8 -17.5°
